GT-1

Last updated on Wed Jun 22 2022 01:02:05 GMT+0100 (British Summer Time)

1 51510U 98067TH 22169.82677544 .10716830 12371-4 13470-2 0 9996 2 51510 51.6165 311.4117 0014082 299.7165 60.1723 16.34843168 21297

Satellite not in orbit